Time,TemperatureF,DewpointF,PressureIn,WindDirection,WindDirectionDegrees,WindSpeedMPH,WindSpeedGustMPH,Humidity,HourlyPrecipIn,Conditions,Clouds,dailyrainin,SoftwareType,DateUTC
2013-09-19 00:13:00,74.0,70.0,29.97,ESE,122,10.0,16.0,88,0.00,,,0.00,,2013-09-19 05:13:00,
2013-09-19 00:23:00,73.0,69.0,29.97,East,79,0.0,12.0,88,0.00,,,0.00,,2013-09-19 05:23:00,
2013-09-19 00:43:00,73.0,70.0,29.97,East,79,0.0,0.0,90,0.00,,,0.00,,2013-09-19 05:43:00,
2013-09-19 00:52:00,73.0,70.0,29.97,East,79,0.0,0.0,91,0.00,,,0.00,,2013-09-19 05:52:00,
2013-09-19 01:12:00,72.0,70.0,29.97,East,79,0.0,0.0,93,0.00,,,0.00,,2013-09-19 06:12:00,
2013-09-19 01:22:00,72.0,70.0,29.97,East,79,0.0,0.0,93,0.00,,,0.00,,2013-09-19 06:22:00,
2013-09-19 01:43:00,72.0,70.0,29.97,East,79,0.0,0.0,93,0.00,,,0.00,,2013-09-19 06:43:00,
2013-09-19 01:52:00,72.0,70.0,29.97,East,79,0.0,0.0,94,0.00,,,0.00,,2013-09-19 06:52:00,
2013-09-19 02:11:00,72.0,70.0,29.97,East,79,0.0,0.0,94,0.00,,,0.00,,2013-09-19 07:11:00,
2013-09-19 02:22:00,72.0,70.0,29.97,East,79,0.0,0.0,93,0.00,,,0.00,,2013-09-19 07:22:00,
2013-09-19 02:42:00,72.0,70.0,29.97,East,79,0.0,0.0,92,0.00,,,0.00,,2013-09-19 07:42:00,
2013-09-19 02:52:00,72.0,70.0,29.97,East,79,0.0,0.0,92,0.00,,,0.00,,2013-09-19 07:52:00,
2013-09-19 03:12:00,72.0,70.0,29.96,East,79,0.0,0.0,94,0.00,,,0.00,,2013-09-19 08:12:00,
2013-09-19 03:22:00,72.0,70.0,29.96,East,79,0.0,0.0,94,0.00,,,0.00,,2013-09-19 08:22:00,
2013-09-19 03:42:00,72.0,70.0,29.96,East,79,0.0,0.0,94,0.00,,,0.00,,2013-09-19 08:42:00,
2013-09-19 03:52:00,72.0,70.0,29.96,East,79,0.0,0.0,94,0.00,,,0.00,,2013-09-19 08:52:00,
2013-09-19 04:11:00,72.0,70.0,29.96,East,79,0.0,0.0,94,0.00,,,0.00,,2013-09-19 09:11:00,
2013-09-19 04:21:00,72.0,70.0,29.95,East,79,0.0,0.0,94,0.00,,,0.00,,2013-09-19 09:21:00,
2013-09-19 04:53:00,72.0,70.0,29.95,East,79,0.0,0.0,92,0.00,,,0.00,,2013-09-19 09:53:00,
2013-09-19 05:12:00,72.0,69.0,29.94,East,79,0.0,0.0,91,0.00,,,0.00,,2013-09-19 10:12:00,
2013-09-19 05:23:00,72.0,69.0,29.94,East,79,0.0,0.0,91,0.00,,,0.00,,2013-09-19 10:23:00,
2013-09-19 05:43:00,72.0,70.0,29.94,East,79,0.0,0.0,92,0.00,,,0.00,,2013-09-19 10:43:00,
2013-09-19 05:52:00,72.0,70.0,29.94,East,79,0.0,0.0,92,0.00,,,0.00,,2013-09-19 10:52:00,
2013-09-19 06:12:00,72.0,69.0,29.94,East,79,0.0,0.0,91,0.00,,,0.00,,2013-09-19 11:12:00,
2013-09-19 06:22:00,72.0,69.0,29.95,East,79,0.0,0.0,91,0.00,,,0.00,,2013-09-19 11:22:00,
2013-09-19 06:42:00,72.0,69.0,29.95,East,79,0.0,0.0,91,0.00,,,0.00,,2013-09-19 11:42:00,
2013-09-19 06:52:00,72.0,70.0,29.94,East,79,0.0,0.0,92,0.00,,,0.00,,2013-09-19 11:52:00,
2013-09-19 07:11:00,71.0,69.0,29.95,East,79,0.0,0.0,93,0.00,,,0.00,,2013-09-19 12:11:00,
2013-09-19 07:21:00,71.0,69.0,29.96,East,79,0.0,0.0,93,0.00,,,0.00,,2013-09-19 12:21:00,
2013-09-19 07:43:00,72.0,70.0,29.96,East,79,0.0,0.0,93,0.00,,,0.00,,2013-09-19 12:43:00,
2013-09-19 07:52:00,72.0,70.0,29.95,East,79,0.0,0.0,93,0.00,,,0.00,,2013-09-19 12:52:00,
2013-09-19 08:11:00,73.0,70.0,29.95,East,79,0.0,0.0,89,0.00,,,0.00,,2013-09-19 13:11:00,
2013-09-19 08:21:00,74.0,70.0,29.96,East,79,0.0,0.0,87,0.00,,,0.00,,2013-09-19 13:21:00,
2013-09-19 08:42:00,75.0,70.0,29.96,East,79,0.0,0.0,84,0.00,,,0.00,,2013-09-19 13:42:00,
2013-09-19 08:52:00,75.0,70.0,29.96,East,79,0.0,0.0,84,0.00,,,0.00,,2013-09-19 13:52:00,
2013-09-19 09:12:00,76.0,69.0,29.96,SE,138,14.0,30.0,80,0.00,,,0.00,,2013-09-19 14:12:00,
2013-09-19 09:22:00,77.0,70.0,29.96,SSE,147,12.0,24.0,78,0.00,,,0.00,,2013-09-19 14:22:00,
2013-09-19 09:52:00,78.0,71.0,29.95,SE,142,12.0,23.0,78,0.00,,,0.00,,2013-09-19 14:52:00,
2013-09-19 10:11:00,79.0,70.0,29.95,SSE,156,14.0,25.0,74,0.00,,,0.00,,2013-09-19 15:11:00,
2013-09-19 10:22:00,79.0,70.0,29.95,SSE,158,11.0,28.0,73,0.00,,,0.00,,2013-09-19 15:22:00,
2013-09-19 10:43:00,81.0,70.0,29.95,South,169,13.0,25.0,70,0.00,,,0.00,,2013-09-19 15:43:00,
2013-09-19 10:53:00,81.0,69.0,29.95,SSE,162,11.0,21.0,68,0.00,,,0.00,,2013-09-19 15:53:00,
2013-09-19 11:04:00,81.0,69.0,29.95,SSE,162,11.0,21.0,68,0.00,,,0.00,,2013-09-19 16:04:00,
2013-09-19 11:24:00,84.0,70.0,29.95,SSE,161,12.0,28.0,62,0.00,,,0.00,,2013-09-19 16:24:00,
2013-09-19 11:42:00,85.0,69.0,29.94,SSE,158,14.0,29.0,58,0.00,,,0.00,,2013-09-19 16:42:00,
2013-09-19 11:52:00,85.0,69.0,29.94,South,170,11.0,25.0,59,0.00,,,0.00,,2013-09-19 16:52:00,
2013-09-19 12:12:00,87.0,69.0,29.93,SE,137,10.0,24.0,56,0.00,,,0.00,,2013-09-19 17:12:00,
2013-09-19 12:23:00,87.0,69.0,29.93,SSE,153,13.0,25.0,55,0.00,,,0.00,,2013-09-19 17:23:00,
2013-09-19 12:53:00,89.0,69.0,29.93,South,171,10.0,24.0,52,0.00,,,0.00,,2013-09-19 17:53:00,
2013-09-19 13:11:00,89.0,69.0,29.92,SE,141,10.0,21.0,52,0.00,,,0.00,,2013-09-19 18:11:00,
2013-09-19 13:22:00,90.0,69.0,29.92,SE,134,10.0,23.0,51,0.00,,,0.00,,2013-09-19 18:22:00,
2013-09-19 13:42:00,90.0,68.0,29.92,SSW,199,15.0,29.0,49,0.00,,,0.00,,2013-09-19 18:42:00,
2013-09-19 13:52:00,91.0,69.0,29.91,South,176,11.0,25.0,48,0.00,,,0.00,,2013-09-19 18:52:00,
2013-09-19 14:12:00,91.0,68.0,29.91,ESE,120,11.0,21.0,47,0.00,,,0.00,,2013-09-19 19:12:00,
2013-09-19 14:22:00,92.0,68.0,29.91,South,169,13.0,26.0,46,0.00,,,0.00,,2013-09-19 19:22:00,
2013-09-19 14:52:00,91.0,67.0,29.89,SSW,204,13.0,22.0,46,0.00,,,0.00,,2013-09-19 19:52:00,
2013-09-19 15:12:00,92.0,68.0,29.88,SSE,152,15.0,23.0,45,0.00,,,0.00,,2013-09-19 20:12:00,
2013-09-19 15:22:00,92.0,67.0,29.88,South,180,10.0,25.0,44,0.00,,,0.00,,2013-09-19 20:22:00,
2013-09-19 15:42:00,92.0,68.0,29.88,SSE,165,10.0,29.0,46,0.00,,,0.00,,2013-09-19 20:42:00,
2013-09-19 15:52:00,92.0,69.0,29.87,SE,142,10.0,24.0,47,0.00,,,0.00,,2013-09-19 20:52:00,
2013-09-19 16:12:00,91.0,67.0,29.86,SSE,148,14.0,24.0,45,0.00,,,0.00,,2013-09-19 21:12:00,
2013-09-19 16:22:00,92.0,67.0,29.85,South,189,12.0,22.0,44,0.00,,,0.00,,2013-09-19 21:22:00,
2013-09-19 16:44:00,92.0,68.0,29.84,SSE,165,12.0,25.0,45,0.00,,,0.00,,2013-09-19 21:44:00,
2013-09-19 16:55:00,91.0,67.0,29.84,SSE,162,12.0,24.0,45,0.00,,,0.00,,2013-09-19 21:55:00,
2013-09-19 17:14:00,92.0,68.0,29.83,SSE,155,9.0,20.0,46,0.00,,,0.00,,2013-09-19 22:14:00,
2013-09-19 17:24:00,91.0,67.0,29.83,SE,144,13.0,22.0,45,0.00,,,0.00,,2013-09-19 22:24:00,
2013-09-19 17:53:00,90.0,68.0,29.82,SE,130,12.0,21.0,48,0.00,,,0.00,,2013-09-19 22:53:00,
2013-09-19 18:12:00,89.0,67.0,29.81,SSE,152,11.0,22.0,49,0.00,,,0.00,,2013-09-19 23:12:00,
2013-09-19 18:22:00,88.0,67.0,29.82,SE,144,10.0,22.0,50,0.00,,,0.00,,2013-09-19 23:22:00,
2013-09-19 18:53:00,86.0,68.0,29.83,SE,134,7.0,12.0,55,0.00,,,0.00,,2013-09-19 23:53:00,
2013-09-19 19:12:00,84.0,69.0,29.85,SSE,152,6.0,12.0,60,0.00,,,0.00,,2013-09-20 00:12:00,
2013-09-19 19:22:00,84.0,69.0,29.85,SE,127,6.0,13.0,61,0.00,,,0.00,,2013-09-20 00:22:00,
2013-09-19 19:42:00,84.0,70.0,29.85,SSE,147,7.0,10.0,62,0.00,,,0.00,,2013-09-20 00:42:00,
2013-09-19 19:52:00,83.0,69.0,29.85,SSE,147,6.0,14.0,62,0.00,,,0.00,,2013-09-20 00:52:00,
2013-09-19 20:12:00,83.0,69.0,29.86,SE,140,7.0,10.0,63,0.00,,,0.00,,2013-09-20 01:12:00,
2013-09-19 20:22:00,83.0,70.0,29.85,SSE,151,5.0,13.0,64,0.00,,,0.00,,2013-09-20 01:22:00,
2013-09-19 20:42:00,82.0,69.0,29.86,SSE,156,8.0,17.0,65,0.00,,,0.00,,2013-09-20 01:42:00,
2013-09-19 20:52:00,82.0,69.0,29.86,SE,145,6.0,14.0,66,0.00,,,0.00,,2013-09-20 01:52:00,
2013-09-19 21:12:00,81.0,69.0,29.85,SE,129,8.0,15.0,67,0.00,,,0.00,,2013-09-20 02:12:00,
2013-09-19 21:22:00,81.0,69.0,29.85,SE,134,8.0,14.0,68,0.00,,,0.00,,2013-09-20 02:22:00,
2013-09-19 21:42:00,80.0,69.0,29.85,SE,134,7.0,14.0,70,0.00,,,0.00,,2013-09-20 02:42:00,
2013-09-19 21:52:00,80.0,70.0,29.85,SE,128,7.0,13.0,71,0.00,,,0.00,,2013-09-20 02:52:00,
2013-09-19 22:12:00,80.0,71.0,29.85,SE,125,8.0,14.0,73,0.00,,,0.00,,2013-09-20 03:12:00,
2013-09-19 22:23:00,80.0,71.0,29.84,SE,132,10.0,17.0,74,0.00,,,0.00,,2013-09-20 03:23:00,
2013-09-19 22:45:00,79.0,70.0,29.85,SE,136,10.0,16.0,74,0.00,,,0.00,,2013-09-20 03:45:00,
2013-09-19 22:55:00,79.0,70.0,29.85,SE,134,10.0,16.0,75,0.00,,,0.00,,2013-09-20 03:55:00,
2013-09-19 23:14:00,79.0,72.0,29.85,ESE,123,13.0,22.0,79,0.00,,,0.00,,2013-09-20 04:14:00,
2013-09-19 23:24:00,78.0,72.0,29.85,SE,137,10.0,24.0,83,0.00,,,0.00,,2013-09-20 04:24:00,
2013-09-19 23:44:00,78.0,72.0,29.85,SSE,149,12.0,24.0,81,0.00,,,0.00,,2013-09-20 04:44:00,
2013-09-19 23:53:00,78.0,71.0,29.85,SSE,147,13.0,20.0,80,0.00,,,0.00,,2013-09-20 04:53:00,